CEB645 RPLL-RPVP

Flight info

Callsign CEB645
Flight time 0h 56m
Altitude 32000
Route BUCAL2R BUCAL M646 NOMYO NOMYO2W
Aircraft A339/H-SADE1E2E3GHIJ3J5M1P2RWXY/LB2D1

Departure

Time 2026-05-04 15:30
Airport Ninoy Aquino International Airport (RPLL)

Arrival

Time 2026-05-04 16:26
Airport Puerto Princesa International Airport / PAF Antonio Bautista Air Base (RPVP)
Time Latitude Longitude Altitude Speed Heading
2026-05-04 14:46 14.52044 121.01135 90 ft 0 kts 46°
2026-05-04 14:57 14.52042 121.01132 90 ft 0 kts 46°
2026-05-04 15:14 14.52034 121.01123 90 ft 2 kts 46°
2026-05-04 15:14 14.52023 121.01112 90 ft 2 kts 46°
2026-05-04 15:14 14.52013 121.01101 90 ft 2 kts 46°
2026-05-04 15:15 14.52002 121.01090 90 ft 2 kts 46°
2026-05-04 15:15 14.51993 121.01077 90 ft 2 kts 65°
2026-05-04 15:15 14.51988 121.01063 90 ft 2 kts 85°
2026-05-04 15:16 14.51995 121.01033 90 ft 2 kts 125°
2026-05-04 15:16 14.52000 121.01026 90 ft 1 kts 136°
2026-05-04 15:16 14.52002 121.01024 90 ft 0 kts 136°
2026-05-04 15:18 14.51991 121.01035 90 ft 4 kts 134°
2026-05-04 15:19 14.51888 121.01144 90 ft 15 kts 134°
2026-05-04 15:19 14.51801 121.01234 90 ft 19 kts 136°
2026-05-04 15:19 14.51591 121.01451 90 ft 22 kts 135°
2026-05-04 15:20 14.51479 121.01566 90 ft 23 kts 134°
2026-05-04 15:20 14.51363 121.01687 90 ft 24 kts 135°
2026-05-04 15:20 14.51243 121.01810 90 ft 24 kts 135°
2026-05-04 15:20 14.51144 121.01911 90 ft 14 kts 135°
2026-05-04 15:21 14.51089 121.01965 90 ft 1 kts 135°
2026-05-04 15:21 14.51087 121.01968 90 ft 0 kts 135°
2026-05-04 15:22 14.51086 121.01968 90 ft 1 kts 135°
2026-05-04 15:22 14.51070 121.01982 90 ft 4 kts 152°
2026-05-04 15:22 14.51005 121.01924 90 ft 10 kts 239°
2026-05-04 15:23 14.50958 121.01840 90 ft 15 kts 240°
2026-05-04 15:23 14.50898 121.01731 90 ft 19 kts 240°
2026-05-04 15:23 14.50829 121.01606 90 ft 21 kts 240°
2026-05-04 15:23 14.50751 121.01468 90 ft 23 kts 240°
2026-05-04 15:24 14.50578 121.01157 90 ft 25 kts 240°
2026-05-04 15:24 14.50409 121.00850 90 ft 23 kts 239°
2026-05-04 15:25 14.50326 121.00704 90 ft 23 kts 240°
2026-05-04 15:25 14.50248 121.00562 90 ft 22 kts 239°
2026-05-04 15:25 14.50172 121.00424 90 ft 21 kts 240°
2026-05-04 15:26 14.50021 121.00153 90 ft 22 kts 240°
2026-05-04 15:26 14.49948 121.00021 90 ft 16 kts 239°
2026-05-04 15:26 14.49894 120.99970 90 ft 0 kts 171°
2026-05-04 15:28 14.49877 120.99973 90 ft 4 kts 163°
2026-05-04 15:29 14.49826 120.99997 90 ft 11 kts 143°
2026-05-04 15:30 14.50892 121.01998 229 ft 167 kts 63°
2026-05-04 15:30 14.52544 121.04993 2070 ft 157 kts 61°
2026-05-04 15:31 14.53729 121.07134 2621 ft 186 kts 61°
2026-05-04 15:31 14.54396 121.08337 2896 ft 202 kts 62°
2026-05-04 15:32 14.52512 121.11978 3757 ft 265 kts 172°
2026-05-04 15:32 14.48744 121.11216 4911 ft 284 kts 195°
2026-05-04 15:33 14.44898 121.10101 6322 ft 290 kts 193°
2026-05-04 15:34 14.38894 121.08634 8297 ft 300 kts 190°
2026-05-04 15:34 14.36832 121.08158 8945 ft 304 kts 189°
2026-05-04 15:34 14.32648 121.07201 10232 ft 310 kts 189°
2026-05-04 15:35 14.28294 121.05992 10924 ft 342 kts 201°
2026-05-04 15:35 14.26135 121.04827 11302 ft 354 kts 211°
2026-05-04 15:35 14.24077 121.03406 11901 ft 357 kts 213°
2026-05-04 15:36 14.21004 121.01200 12883 ft 358 kts 214°
2026-05-04 15:36 14.18952 120.99731 13495 ft 360 kts 213°
2026-05-04 15:36 14.16884 120.98259 14067 ft 362 kts 213°
2026-05-04 15:37 14.14800 120.96783 14621 ft 365 kts 213°
2026-05-04 15:37 14.12697 120.95297 15160 ft 368 kts 213°
2026-05-04 15:37 14.10600 120.93819 15697 ft 371 kts 213°
2026-05-04 15:37 14.08461 120.92313 16221 ft 374 kts 213°
2026-05-04 15:38 14.06292 120.90787 16758 ft 377 kts 213°
2026-05-04 15:38 14.04120 120.89256 17285 ft 380 kts 213°
2026-05-04 15:38 14.01927 120.87712 17805 ft 383 kts 213°
2026-05-04 15:38 13.99712 120.86153 18336 ft 385 kts 213°
2026-05-04 15:39 13.97491 120.84590 18880 ft 387 kts 213°
2026-05-04 15:39 13.95239 120.83006 19425 ft 389 kts 213°
2026-05-04 15:39 13.90761 120.79857 20445 ft 392 kts 213°
2026-05-04 15:40 13.88498 120.78267 20917 ft 395 kts 213°
2026-05-04 15:40 13.86229 120.76670 21398 ft 397 kts 213°
2026-05-04 15:40 13.83943 120.75060 21863 ft 399 kts 213°
2026-05-04 15:40 13.81629 120.73433 22306 ft 401 kts 213°
2026-05-04 15:41 13.79323 120.71812 22759 ft 403 kts 213°
2026-05-04 15:41 13.77006 120.70184 23207 ft 406 kts 213°
2026-05-04 15:41 13.74674 120.68542 23652 ft 408 kts 213°
2026-05-04 15:41 13.72308 120.66882 24096 ft 410 kts 213°
2026-05-04 15:42 13.69953 120.65227 24534 ft 412 kts 213°
2026-05-04 15:42 13.67595 120.63571 24937 ft 414 kts 213°
2026-05-04 15:42 13.65196 120.61886 25341 ft 417 kts 213°
2026-05-04 15:42 13.62802 120.60210 25740 ft 419 kts 212°
2026-05-04 15:43 13.60301 120.58607 26124 ft 421 kts 210°
2026-05-04 15:43 13.57733 120.57165 26489 ft 424 kts 206°
2026-05-04 15:43 13.55041 120.55830 26871 ft 426 kts 205°
2026-05-04 15:43 13.52358 120.54539 27242 ft 428 kts 204°
2026-05-04 15:44 13.49663 120.53246 27599 ft 431 kts 204°
2026-05-04 15:44 13.46918 120.51927 27961 ft 433 kts 204°
2026-05-04 15:44 13.44198 120.50622 28395 ft 434 kts 205°
2026-05-04 15:44 13.41470 120.49311 28876 ft 433 kts 205°
2026-05-04 15:45 13.38724 120.47991 29362 ft 431 kts 205°
2026-05-04 15:45 13.36008 120.46687 29843 ft 430 kts 205°
2026-05-04 15:45 13.33315 120.45396 30310 ft 429 kts 205°
2026-05-04 15:45 13.30583 120.44081 30667 ft 431 kts 206°
2026-05-04 15:46 13.27851 120.42767 30975 ft 434 kts 206°
2026-05-04 15:46 13.25136 120.41462 31294 ft 436 kts 206°
2026-05-04 15:46 13.22373 120.40134 31638 ft 437 kts 206°
2026-05-04 15:46 13.19587 120.38795 31901 ft 439 kts 206°
2026-05-04 15:47 13.16826 120.37469 31917 ft 440 kts 206°
2026-05-04 15:47 13.11283 120.34806 31913 ft 440 kts 206°
2026-05-04 15:48 13.05722 120.32140 31908 ft 439 kts 206°
2026-05-04 15:48 12.97398 120.28150 31913 ft 439 kts 206°
2026-05-04 15:49 12.91855 120.25494 31904 ft 440 kts 205°
2026-05-04 15:49 12.86332 120.22849 31892 ft 440 kts 205°
2026-05-04 15:50 12.80747 120.20178 31894 ft 440 kts 205°
2026-05-04 15:50 12.75199 120.17525 31889 ft 440 kts 205°
2026-05-04 15:51 12.69642 120.14868 31893 ft 439 kts 205°
2026-05-04 15:51 12.64097 120.12218 31886 ft 440 kts 205°
2026-05-04 15:52 12.58526 120.09558 31882 ft 441 kts 205°
2026-05-04 15:52 12.52962 120.06902 31885 ft 441 kts 205°
2026-05-04 15:53 12.47394 120.04243 31883 ft 441 kts 205°
2026-05-04 15:53 12.41812 120.01582 31890 ft 440 kts 205°
2026-05-04 15:54 12.36281 119.98946 31893 ft 440 kts 205°
2026-05-04 15:54 12.30696 119.96285 31891 ft 440 kts 205°
2026-05-04 15:55 12.25149 119.93644 31892 ft 439 kts 205°
2026-05-04 15:55 12.19592 119.91000 31888 ft 439 kts 205°
2026-05-04 15:56 12.14066 119.88369 31887 ft 439 kts 205°
2026-05-04 15:56 12.08507 119.85725 31888 ft 439 kts 205°
2026-05-04 15:57 12.02938 119.83078 31889 ft 440 kts 204°
2026-05-04 15:57 11.97378 119.80437 31899 ft 441 kts 204°
2026-05-04 15:58 11.91802 119.77790 31898 ft 439 kts 205°
2026-05-04 15:58 11.86247 119.75154 31895 ft 439 kts 205°
2026-05-04 15:59 11.80678 119.72512 31709 ft 439 kts 205°
2026-05-04 15:59 11.77936 119.71211 31457 ft 436 kts 205°
2026-05-04 15:59 11.75163 119.69897 31196 ft 433 kts 204°
2026-05-04 16:00 11.72450 119.68609 30923 ft 430 kts 204°
2026-05-04 16:00 11.69722 119.67316 30628 ft 428 kts 204°
2026-05-04 16:00 11.67008 119.66048 30267 ft 427 kts 204°
2026-05-04 16:00 11.64311 119.64797 29843 ft 428 kts 204°
2026-05-04 16:01 11.61571 119.63525 29371 ft 428 kts 204°
2026-05-04 16:01 11.58855 119.62266 28862 ft 428 kts 204°
2026-05-04 16:01 11.56142 119.61009 28357 ft 428 kts 204°
2026-05-04 16:01 11.53437 119.59755 27839 ft 429 kts 204°
2026-05-04 16:02 11.50693 119.58482 27299 ft 429 kts 204°
2026-05-04 16:02 11.47988 119.57227 26873 ft 427 kts 204°
2026-05-04 16:02 11.42596 119.54726 26141 ft 420 kts 204°
2026-05-04 16:03 11.39949 119.53499 25779 ft 417 kts 204°
2026-05-04 16:03 11.37328 119.52285 25419 ft 413 kts 204°
2026-05-04 16:03 11.34691 119.51062 25051 ft 410 kts 203°
2026-05-04 16:03 11.32096 119.49860 24687 ft 407 kts 203°
2026-05-04 16:04 11.29510 119.48663 24325 ft 405 kts 203°
2026-05-04 16:04 11.24429 119.46311 23606 ft 400 kts 203°
2026-05-04 16:04 11.21888 119.45136 23249 ft 397 kts 203°
2026-05-04 16:05 11.19374 119.43973 22893 ft 395 kts 203°
2026-05-04 16:05 11.16855 119.42808 22532 ft 393 kts 203°
2026-05-04 16:05 11.11898 119.40515 21821 ft 389 kts 203°
2026-05-04 16:06 11.09439 119.39376 21465 ft 387 kts 202°
2026-05-04 16:06 11.02840 119.36465 20456 ft 383 kts 197°
2026-05-04 16:07 10.99438 119.35415 19822 ft 385 kts 194°
2026-05-04 16:07 10.91635 119.33070 18255 ft 392 kts 194°
2026-05-04 16:08 10.89004 119.32259 17720 ft 394 kts 194°
2026-05-04 16:08 10.81081 119.29791 16296 ft 394 kts 195°
2026-05-04 16:09 10.75840 119.28152 15486 ft 389 kts 195°
2026-05-04 16:09 10.70697 119.26540 14695 ft 384 kts 195°
2026-05-04 16:10 10.65575 119.24937 13888 ft 381 kts 195°
2026-05-04 16:11 10.58027 119.22575 12752 ft 374 kts 196°
2026-05-04 16:11 10.55566 119.21805 12398 ft 371 kts 196°
2026-05-04 16:12 10.48221 119.19506 11362 ft 362 kts 196°
2026-05-04 16:12 10.41071 119.17269 10326 ft 354 kts 195°
2026-05-04 16:13 10.36410 119.15813 10029 ft 336 kts 195°
2026-05-04 16:13 10.32101 119.14465 9944 ft 307 kts 195°
2026-05-04 16:14 10.28096 119.13216 9395 ft 294 kts 195°
2026-05-04 16:14 10.24249 119.12015 8883 ft 286 kts 195°
2026-05-04 16:15 10.18535 119.10231 8094 ft 284 kts 195°
2026-05-04 16:16 10.14742 119.09048 7570 ft 283 kts 194°
2026-05-04 16:16 10.09098 119.07287 6800 ft 281 kts 194°
2026-05-04 16:17 10.05331 119.06112 6284 ft 280 kts 193°
2026-05-04 16:18 9.99740 119.04371 5498 ft 279 kts 194°
2026-05-04 16:18 9.97890 119.03797 5243 ft 279 kts 194°
2026-05-04 16:19 9.92297 119.02055 4448 ft 278 kts 194°
2026-05-04 16:19 9.88558 119.00889 3930 ft 278 kts 194°
2026-05-04 16:20 9.82997 118.99156 3162 ft 278 kts 194°
2026-05-04 16:20 9.79318 118.98309 2635 ft 260 kts 186°
2026-05-04 16:21 9.74501 118.97312 2422 ft 209 kts 211°
2026-05-04 16:22 9.73303 118.94965 2439 ft 190 kts 270°
2026-05-04 16:22 9.73573 118.90992 2445 ft 188 kts 275°
2026-05-04 16:23 9.73744 118.87013 1921 ft 182 kts 273°
2026-05-04 16:24 9.73941 118.82216 1049 ft 158 kts 273°
2026-05-04 16:25 9.74032 118.80084 668 ft 147 kts 273°
2026-05-04 16:26 9.74199 118.76103 84 ft 109 kts 272°
2026-05-04 16:26 9.74320 118.75254 84 ft 13 kts
2026-05-04 16:27 9.74404 118.75204 84 ft 5 kts 281°
2026-05-04 16:28 9.74431 118.75069 84 ft 5 kts 333°
2026-05-04 16:28 9.74498 118.75063 84 ft 0 kts